User: anonymous   Login
Location: Newark
(51.5033°N, 0.1199°W)
Time: 15:10:29
(UTC+00:00)
Language:

PCSat - Orbit

View from above orbital plane
View from above orbital plane
View from above satellite
View from above satellite

Ground track
Ground track

The orbit data is extracted from the following two-line orbital elements,

1 26931U 01043C   19265.70247041 -.00000050  00000-0  12600-4 0  9996
2 26931  67.0499 115.9261 0007430 270.7224  89.3025 14.30552887938708
Epoch (UTC): 22 September 2019 16:51:33
Eccentricity: 0.0007430
inclination: 67.0499°
perigee height: 784 km
apogee height: 795 km
right ascension of ascending node: 115.9261°
argument of perigee: 270.7224°
revolutions per day: 14.30552887
mean anomaly at epoch: 89.3025°
orbit number at epoch: 93870

The dashed part of the orbit path shows where the satellite is in the earth's shadow,  

DLR